Regional Weather Roundup
Issued by NWS

Home | Current Version | Previous Version | Text Only | Print | Product List | Glossary On
Versions: 1 2 3 4 5 6 7 8 9 10 11 12 13 14 15 16 17 18 19 20 21 22 23 24 25 26 27 28 29 30 31 32 33 34 35 36 37 38 39 40 41 42 43 44 45 46 47 48 49 50
000
ASUS46 KLOX 310513
RWRCA

SOUTHERN CALIFORNIA WEATHER ROUNDUP
NATIONAL WEATHER SERVICE OXNARD CALIFORNIA
1000 PM PDT SUN AUG 30 2015

NOTE: "FAIR" INDICATES FEW OR NO CLOUDS BELOW 12,000 FEET WITH NO
SIGNIFICANT WEATHER AND/OR OBSTRUCTIONS TO VISIBILITY.

  -  STATIONS PRECEEDED BY AN ASTERISK (*) ARE NOT NWS OR FAA
     STATIONS AND ARE NOT SUBJECT TO NWS AND FAA QUALITY CONTROL.

CAZ041-042-087-310600-
LA AND ORANGE COUNTY COASTAL AREAS


CITY           SKY/WX    TMP DP  RH WIND       PRES   REMARKS
L.A. DOWNTOWN  PTCLDY    72  62  71 CALM      29.84R
L.A. AIRPORT   PTCLDY    72  65  78 W7        29.84S
LONG BEACH     PTCLDY    74  63  68 NE3       29.84R

CITY           SKY/WX    TMP DP  RH WIND       PRES   REMARKS
AVALON           N/A     68 N/A N/A MISG        N/A
FULLERTON      PTCLDY    73  66  78 SE5       29.84R
*GETTY CENTER    N/A     64  63  94 NE3         N/A
HAWTHORNE      PTCLDY    74  65  73 CALM      29.84S
*LOS ALAMITOS  FAIR      71  68  89 SE5       29.84R
*REDONDO BEACH   N/A     71  65  82 CALM      29.84S
SANTA ANA      PTCLDY    70  65  84 S5        29.85R
STA MONICA APT PTCLDY    71  64  78 W3        29.84S
*UCLA            N/A     70  63  78 CALM      29.82S

$$

CAZ547-548-048-310600-
LA COUNTY VALLEYS AND INLAND EMPIRE


CITY           SKY/WX    TMP DP  RH WIND       PRES   REMARKS
BURBANK        PTCLDY    76  60  57 SE7       29.85R
VAN NUYS       PTCLDY    75  60  59 E6        29.85R

CITY           SKY/WX    TMP DP  RH WIND       PRES   REMARKS
CORONA AIRPORT CLEAR     73  63  71 CALM      29.86R
*CHATSWORTH      N/A     76  61  59 E3        29.83R
CHINO          PTCLDY    75  61  61 W8        29.87R
*CLAREMONT       N/A     70  59  69 N3          N/A
MARCH AFB      CLEAR     74  61  63 CALM      29.89R
*NORTHRIDGE      N/A     75  57  53 NE3         N/A
ONTARIO        PTCLDY    75  61  61 W6        29.87R
*PASADENA        N/A     75  63  64 CALM        N/A
RIVERSIDE      CLEAR     76  61  59 CALM      29.87R
SAN BERNARDINO NOT AVBL
*SAN GABRIEL     N/A     75  64  67 S2        29.90S
*WHITEMAN AP   NOT AVBL
*WHITTIER HILL   N/A     69  65  88 S3          N/A
*WOODLAND HILL   N/A     75  59  57 E2          N/A

$$

CAZ054-055-310600-
LA AND SAN BERNARDINO COUNTY MOUNTAINS


CITY           SKY/WX    TMP DP  RH WIND       PRES   REMARKS
*ACTON           N/A     74  56  52 S6          N/A
*BIG BEAR AIRP CLEAR     55  46  71 CALM      30.19F
*BIG PINES       N/A     61  46  57 CALM        N/A
SANDBERG       MOCLDY    65  48  54 NW22      30.06S

$$

CAZ028-029-059-060-099-310600-
ANTELOPE VALLEY AND SURROUNDING AREAS


CITY           SKY/WX    TMP DP  RH WIND       PRES   REMARKS
LANCASTER      MOCLDY    74  50  42 W20       29.91R
PALMDALE       MOCLDY    76  53  44 W9        29.92R
*POPPY PARK      N/A     73  51  46 W20G32      N/A

CITY           SKY/WX    TMP DP  RH WIND       PRES   REMARKS
29 PALMS       PTCLDY    89  47  23 NW7       29.88R
BARSTOW/DAGGET MOCLDY    85  50  29 W17       29.83R
BISHOP         PTCLDY    74  32  21 VRB7      29.93R
CHINA LAKE     PTCLDY    81  44  27 S10       29.80R
EDWARDS AFB    MOCLDY    76  49  39 SW20      29.86S
MOJAVE         CLEAR     73  50  43 NW29G37   29.88R
NEEDLES        MOCLDY   101  33   9 SW21      29.71R HX  95
VICTORVILLE    PTCLDY    75  50  41 SW10      29.94R

$$

CAZ039-040-310600-
VENTURA AND SANTA BARBARA COUNTY COAST


CITY           SKY/WX    TMP DP  RH WIND       PRES   REMARKS
CAMARILLO      PTCLDY    71  62  73 CALM      29.82S
NWS OXNARD       N/A     69  62  77 CALM      29.82S
OXNARD AIRPORT MOCLDY    70  63  78 CALM      29.82S
*POINT MUGU    MOCLDY    70  62  76 W5        29.83S
SBA APT/GOLETA MOCLDY    73  64  73 E7        29.80R
*SANTA BARBARA   N/A     73  64  71 CALM      29.88S
*VENTURA         N/A     71  62  73 CALM      29.44S

$$

CAZ044-045-310600-
VENTURA COUNTY VALLEYS


CITY           SKY/WX    TMP DP  RH WIND       PRES   REMARKS
*SIMI VALLEY     N/A     72  58  62 CALM      29.77S
*OJAI            N/A     71  62  71 CALM      29.75S
*FILLMORE        N/A     71  62  71 CALM      29.73S

$$

CAZ053-310600-
VENTURA COUNTY MOUNTAINS


CITY           SKY/WX    TMP DP  RH WIND       PRES   REMARKS

$$

CAZ034-035-036-310600-
CENTRAL COAST AND SANTA YNEZ VALLEY


CITY           SKY/WX    TMP DP  RH WIND       PRES   REMARKS
SAN LUIS OBISP CLEAR     64  57  78 W8        29.89R
SANTA MARIA    CLEAR     63  58  83 W9        29.90R

CITY           SKY/WX    TMP DP  RH WIND       PRES   REMARKS
*CAL POLY SLO    N/A     61  59  94 S2G12       N/A
*LOMPOC        CLEAR     63  55  77 W8        29.90F
*PISMO BEACH     N/A     65  58  77 NE1       29.89S
*SANTA YNEZ    FAIR      61  54  77 W3        29.90S

$$

CAZ037-038-051-310600-
SAN LUIS OBISPO COUNTY INTERIOR AND CUYAMA VALLEY


CITY           SKY/WX    TMP DP  RH WIND       PRES   REMARKS
*CUYAMA          N/A     71  51  47 SE6       29.85S
PASO ROBLES    CLEAR     69  53  56 NW20      29.92R

$$

CAZ032-033-061-310600-
SOUTHERN DESERTS


CITY           SKY/WX    TMP DP  RH WIND       PRES   REMARKS
BLYTHE         MOCLDY    97  52  21 W10       29.70R HX  94
IMPERIAL       PTCLDY    93  47  20 W14       29.69S
PALM SPRINGS   CLEAR     94  53  25 NW17      29.71R HX  91
THERMAL        CLEAR     94  54  25 N13       29.66R HX  92

$$

ELSEWHERE ACROSS THE WESTERN UNITED STATES AND MEXICO


CITY           SKY/WX    TMP DP  RH WIND       PRES   REMARKS
DENVER, CO     MOCLDY    78  41  26 SW9       30.01R
GRAND CANYON,    N/A    N/A N/A N/A MISG      30.24R
HONOLULU, HI   PTCLDY    84  73  70 NE7       29.85R HX  91
KAHULUI, MAUI  PTCLDY    82  75  78 NE12      29.85R
LAKE TAHOE, CA CLEAR     54  37  52 S5        30.18S
LAS VEGAS, NV  PTCLDY    92  39  15 SW5       29.75S
MAMMOTH LAKES, FAIR      59  36  41 W8        30.19S
MEXICO CITY, M MOCLDY    61  52  72 SW5       30.38R
PHOENIX, AZ    MOCLDY    91  64  40 S7        29.78R HX  92
PORTLAND, OR   PTCLDY    64  50  60 CALM      30.07R
RENO, NV       PTCLDY    71  26  18 CALM      30.07R
SALT LAKE CITY PTCLDY    74  46  36 S8        29.95R
SAN DIEGO, CA  MOCLDY    72  63  73 NW6       29.89R
SAN FRANCISCO, PTCLDY    64  58  80 NW8       29.96R
SAN JOSE, CA   CLEAR     69  54  58 NW7       29.97S
SEATTLE, WA    MOCLDY    62  52  69 S10       30.01S
TIJUANA, MEX   PTCLDY    70  61  73 NW6       29.90S

$$

STATION/POSITION TIME  TEMP    WIND        PRES    VSBY  WAVE
                       AIR SEA DIR/SP/G                  HT/PER
                 (UTC) (F)     (DEG/KT/KT) (MB)    (MI)  (FT/S)
POINT ARGUELLO B NOT AVBL
WEST SANTA BARBA 0450   64 64  320/ 25/ 31 1009.2F         9/ 8
POINT CONCEPTION NOT AVBL
EAST SANTA BARBA 0500   70 70  290/ 10/ 14 1009.3F
SANTA MONICA BAY 0450   71 73  250/  4/  6 1009.8R         4/ 6



USA.gov is the U.S. government's official web portal to all federal, state and local government web resources and services.